| time (UTC) | temp F | wind direction | speed MPH | gust MPH | rain 1hr in | rain 24hr in | rain mn in | humidity % | barometer mb |
| 20260510061001 | 51 | 139 | 0.0 | 1.0 | 0.00 | 0.00 | 0.00 | 91 | 1014.6 |
| 20260510060458 | 51 | 138 | 0.0 | 1.0 | 0.00 | 0.00 | 0.00 | 91 | 1014.4 |
| 20260510055953 | 51 | 137 | 1.0 | 1.0 | 0.00 | 0.00 | 0.00 | 91 | 1014.7 |
| 20260510055449 | 51 | 144 | 1.0 | 1.0 | 0.00 | 0.00 | 0.00 | 90 | 1014.6 |
| 20260510054948 | 51 | 124 | 1.0 | 1.0 | 0.00 | 0.00 | 0.00 | 91 | 1014.8 |
| 20260510054443 | 51 | 133 | 1.0 | 2.0 | 0.00 | 0.00 | 0.00 | 91 | 1014.9 |
| 20260510053938 | 51 | 115 | 0.0 | 1.0 | 0.00 | 0.00 | 0.00 | 91 | 1014.9 |
| 20260510053434 | 51 | 153 | 1.0 | 1.0 | 0.00 | 0.00 | 0.00 | 90 | 1015.1 |
| 20260510052930 | 51 | 113 | 0.0 | 1.0 | 0.00 | 0.00 | 0.00 | 90 | 1014.9 |
| 20260510052426 | 51 | 112 | 1.0 | 1.0 | 0.00 | 0.00 | 0.00 | 90 | 1015.0 |
| 20260510051922 | 51 | 133 | 0.0 | 2.0 | 0.00 | 0.00 | 0.00 | 90 | 1014.9 |
| 20260510051419 | 51 | 114 | 1.0 | 1.0 | 0.00 | 0.00 | 0.00 | 90 | 1015.1 |
| 20260510050915 | 51 | 124 | 1.0 | 1.0 | 0.00 | 0.00 | 0.00 | 90 | 1015.1 |
| 20260510050412 | 51 | 151 | 0.0 | 1.0 | 0.00 | 0.00 | 0.00 | 90 | 1015.0 |
| 20260510045909 | 51 | 151 | 1.0 | 1.0 | 0.00 | 0.00 | 0.00 | 91 | 1015.1 |
| 20260510045406 | 51 | 151 | 0.0 | 1.0 | 0.00 | 0.00 | 0.00 | 91 | 1014.9 |
| 20260510044903 | 50 | 141 | 0.0 | 1.0 | 0.00 | 0.00 | 0.00 | 92 | 1015.1 |
| 20260510044400 | 50 | 144 | 0.0 | 1.0 | 0.00 | 0.00 | 0.00 | 92 | 1015.1 |
| 20260510043857 | 50 | 136 | 1.0 | 1.0 | 0.00 | 0.00 | 0.00 | 92 | 1015.0 |
| 20260510043352 | 50 | 153 | 0.0 | 0.0 | 0.00 | 0.00 | 0.00 | 91 | 1015.0 |
| 20260510042851 | 50 | 153 | 0.0 | 0.0 | 0.00 | 0.00 | 0.00 | 91 | 1015.0 |
| 20260510042346 | 51 | 136 | 0.0 | 0.0 | 0.00 | 0.00 | 0.00 | 90 | 1014.8 |
| 20260510041843 | 50 | 136 | 0.0 | 0.0 | 0.00 | 0.00 | 0.00 | 91 | 1014.7 |
| 20260510041340 | 50 | 136 | 0.0 | 0.0 | 0.00 | 0.00 | 0.00 | 91 | 1014.8 |
| 20260510040838 | 50 | 136 | 0.0 | 0.0 | 0.00 | 0.00 | 0.00 | 91 | 1014.6 |
| 20260510040334 | 51 | 136 | 0.0 | 0.0 | 0.00 | 0.00 | 0.00 | 90 | 1014.7 |
| 20260510035829 | 51 | 136 | 0.0 | 0.0 | 0.00 | 0.00 | 0.00 | 89 | 1014.5 |
| 20260510035325 | 51 | 137 | 0.0 | 0.0 | 0.00 | 0.00 | 0.00 | 89 | 1014.4 |
| 20260510034821 | 52 | 113 | 1.0 | 1.0 | 0.00 | 0.00 | 0.00 | 88 | 1014.4 |
| 20260510034319 | 52 | 133 | 0.0 | 0.0 | 0.00 | 0.00 | 0.00 | 88 | 1014.4 |
| 20260510033815 | 52 | 120 | 0.0 | 1.0 | 0.00 | 0.00 | 0.00 | 88 | 1014.6 |
| 20260510033313 | 51 | 125 | 0.0 | 1.0 | 0.00 | 0.00 | 0.00 | 90 | 1014.4 |
| 20260510032809 | 51 | 122 | 0.0 | 0.0 | 0.00 | 0.00 | 0.00 | 90 | 1014.5 |
| 20260510032306 | 51 | 148 | 0.0 | 0.0 | 0.00 | 0.00 | 0.00 | 90 | 1014.4 |
| 20260510031801 | 51 | 148 | 0.0 | 0.0 | 0.00 | 0.00 | 0.00 | 89 | 1014.4 |
| 20260510031258 | 51 | 148 | 0.0 | 1.0 | 0.00 | 0.00 | 0.00 | 89 | 1014.3 |
| 20260510030756 | 51 | 148 | 0.0 | 1.0 | 0.00 | 0.00 | 0.00 | 89 | 1014.2 |
| 20260510030254 | 51 | 145 | 0.0 | 1.0 | 0.00 | 0.00 | 0.00 | 89 | 1014.2 |
| 20260510025751 | 51 | 136 | 0.0 | 0.0 | 0.00 | 0.00 | 0.00 | 89 | 1014.1 |
| 20260510025249 | 52 | 136 | 0.0 | 1.0 | 0.00 | 0.00 | 0.00 | 87 | 1014.2 |
| 20260510024745 | 52 | 138 | 0.0 | 1.0 | 0.00 | 0.00 | 0.00 | 88 | 1014.2 |
| 20260510024242 | 52 | 138 | 0.0 | 1.0 | 0.00 | 0.00 | 0.00 | 87 | 1014.0 |
| 20260510023738 | 52 | 139 | 0.0 | 1.0 | 0.00 | 0.00 | 0.00 | 87 | 1014.2 |
| 20260510023235 | 52 | 133 | 1.0 | 1.0 | 0.00 | 0.00 | 0.00 | 87 | 1014.2 |
| 20260510022731 | 52 | 129 | 0.0 | 1.0 | 0.00 | 0.00 | 0.00 | 87 | 1014.1 |
| 20260510022231 | 52 | 125 | 0.0 | 1.0 | 0.00 | 0.00 | 0.00 | 87 | 1014.0 |
| 20260510021726 | 52 | 146 | 0.0 | 0.0 | 0.00 | 0.00 | 0.00 | 87 | 1014.1 |
| 20260510021224 | 53 | 146 | 0.0 | 1.0 | 0.00 | 0.00 | 0.00 | 86 | 1014.1 |
| 20260510020719 | 53 | 139 | 1.0 | 2.0 | 0.00 | 0.00 | 0.00 | 84 | 1013.8 |
| 20260510020219 | 53 | 132 | 0.0 | 0.0 | 0.00 | 0.00 | 0.00 | 85 | 1013.8 |
| 20260510015715 | 53 | 131 | 1.0 | 1.0 | 0.00 | 0.00 | 0.00 | 85 | 1013.8 |
| 20260510015212 | 53 | 124 | 0.0 | 1.0 | 0.00 | 0.00 | 0.00 | 85 | 1013.6 |
| 20260510014707 | 53 | 134 | 0.0 | 1.0 | 0.00 | 0.00 | 0.00 | 84 | 1013.5 |
| 20260510014206 | 54 | 126 | 0.0 | 1.0 | 0.00 | 0.00 | 0.00 | 83 | 1013.6 |
| 20260510013705 | 54 | 129 | 0.0 | 1.0 | 0.00 | 0.00 | 0.00 | 83 | 1013.4 |
| 20260510013201 | 54 | 126 | 0.0 | 0.0 | 0.00 | 0.00 | 0.00 | 83 | 1013.4 |
| 20260510012701 | 54 | 117 | 0.0 | 0.0 | 0.00 | 0.00 | 0.00 | 83 | 1013.3 |
| 20260510012157 | 54 | 111 | 0.0 | 0.0 | 0.00 | 0.00 | 0.00 | 83 | 1013.1 |
| 20260510011652 | 55 | 124 | 0.0 | 1.0 | 0.00 | 0.00 | 0.00 | 81 | 1013.2 |
| 20260510011148 | 55 | 107 | 1.0 | 1.0 | 0.00 | 0.00 | 0.00 | 80 | 1013.1 |
| 20260510010644 | 55 | 119 | 0.0 | 1.0 | 0.00 | 0.00 | 0.00 | 80 | 1013.1 |
| 20260510010142 | 56 | 118 | 0.0 | 0.0 | 0.00 | 0.00 | 0.00 | 78 | 1013.1 |
| 20260510005637 | 56 | 116 | 0.0 | 0.0 | 0.00 | 0.00 | 0.00 | 79 | 1012.9 |
| 20260510005134 | 56 | 116 | 0.0 | 0.0 | 0.00 | 0.00 | 0.00 | 78 | 1012.8 |
| 20260510004633 | 56 | 129 | 0.0 | 0.0 | 0.00 | 0.00 | 0.00 | 77 | 1012.4 |
| 20260510004131 | 56 | 126 | 0.0 | 1.0 | 0.00 | 0.00 | 0.00 | 77 | 1012.6 |
| 20260510003627 | 56 | 145 | 0.0 | 0.0 | 0.00 | 0.00 | 0.00 | 77 | 1012.3 |
| 20260510003123 | 57 | 136 | 1.0 | 1.0 | 0.00 | 0.00 | 0.00 | 76 | 1012.4 |
| 20260510002623 | 57 | 155 | 0.0 | 0.0 | 0.00 | 0.00 | 0.00 | 76 | 1012.4 |
| 20260510002120 | 57 | 143 | 0.0 | 1.0 | 0.00 | 0.00 | 0.00 | 75 | 1012.2 |
| 20260510001617 | 58 | 220 | 0.0 | 1.0 | 0.00 | 0.00 | 0.00 | 74 | 1012.2 |
| 20260510001116 | 58 | 153 | 0.0 | 1.0 | 0.00 | 0.00 | 0.00 | 73 | 1012.2 |
| 20260510000616 | 59 | 127 | 0.0 | 1.0 | 0.00 | 0.00 | 0.00 | 72 | 1012.0 |
| 20260510000114 | 60 | 186 | 1.0 | 2.0 | 0.00 | 0.00 | 0.00 | 72 | 1012.3 |
| 20260509235610 | 60 | 252 | 1.0 | 2.0 | 0.00 | 0.00 | 0.00 | 68 | 1012.3 |
| 20260509235107 | 61 | 227 | 0.0 | 1.0 | 0.00 | 0.00 | 0.00 | 69 | 1012.0 |
| 20260509234603 | 62 | 241 | 2.0 | 2.0 | 0.00 | 0.00 | 0.00 | 64 | 1012.2 |
| 20260509234101 | 61 | 255 | 2.0 | 3.0 | 0.00 | 0.00 | 0.00 | 67 | 1012.0 |
| 20260509233558 | 62 | 205 | 2.0 | 2.0 | 0.00 | 0.00 | 0.00 | 69 | 1012.0 |
| 20260509233055 | 62 | 214 | 2.0 | 3.0 | 0.00 | 0.00 | 0.00 | 64 | 1012.0 |
| 20260509232551 | 62 | 238 | 1.0 | 2.0 | 0.00 | 0.00 | 0.00 | 66 | 1012.0 |
| 20260509232048 | 62 | 232 | 1.0 | 2.0 | 0.00 | 0.00 | 0.00 | 63 | 1012.0 |
| 20260509231545 | 63 | 242 | 1.0 | 2.0 | 0.00 | 0.00 | 0.00 | 62 | 1012.3 |
| 20260509231043 | 63 | 250 | 2.0 | 3.0 | 0.00 | 0.00 | 0.00 | 61 | 1012.0 |
| 20260509230539 | 63 | 233 | 3.0 | 4.0 | 0.00 | 0.00 | 0.00 | 62 | 1011.9 |
| 20260509230037 | 64 | 245 | 1.0 | 3.0 | 0.00 | 0.00 | 0.00 | 60 | 1012.2 |
| 20260509225532 | 64 | 249 | 3.0 | 4.0 | 0.00 | 0.00 | 0.00 | 60 | 1012.2 |
| 20260509225027 | 64 | 249 | 1.0 | 4.0 | 0.00 | 0.00 | 0.00 | 59 | 1012.2 |
| 20260509224523 | 64 | 244 | 3.0 | 4.0 | 0.00 | 0.00 | 0.00 | 59 | 1012.3 |
| 20260509224020 | 65 | 264 | 2.0 | 2.0 | 0.00 | 0.00 | 0.00 | 59 | 1012.4 |
| 20260509223517 | 65 | 203 | 3.0 | 4.0 | 0.00 | 0.00 | 0.00 | 58 | 1012.3 |
| 20260509223015 | 65 | 245 | 4.0 | 4.0 | 0.00 | 0.00 | 0.00 | 58 | 1012.4 |
| 20260509222511 | 65 | 208 | 4.0 | 6.0 | 0.00 | 0.00 | 0.00 | 57 | 1012.5 |
| 20260509222006 | 64 | 278 | 2.0 | 4.0 | 0.00 | 0.00 | 0.00 | 60 | 1012.6 |
| 20260509221502 | 64 | 267 | 5.0 | 6.0 | 0.00 | 0.00 | 0.00 | 57 | 1012.6 |
| 20260509220958 | 65 | 242 | 5.0 | 6.0 | 0.00 | 0.00 | 0.00 | 57 | 1012.4 |
| 20260509220455 | 65 | 253 | 3.0 | 3.0 | 0.00 | 0.00 | 0.00 | 58 | 1012.4 |
| 20260509215950 | 65 | 273 | 2.0 | 6.0 | 0.00 | 0.00 | 0.00 | 59 | 1012.5 |
| 20260509215446 | 65 | 253 | 2.0 | 3.0 | 0.00 | 0.00 | 0.00 | 59 | 1012.5 |
| 20260509214944 | 65 | 234 | 0.0 | 3.0 | 0.00 | 0.00 | 0.00 | 57 | 1012.7 |
| 20260509214441 | 64 | 241 | 3.0 | 6.0 | 0.00 | 0.00 | 0.00 | 58 | 1012.6 |
| 20260509213938 | 64 | 225 | 2.0 | 6.0 | 0.00 | 0.00 | 0.00 | 58 | 1012.5 |
| 20260509213433 | 64 | 258 | 4.0 | 4.0 | 0.00 | 0.00 | 0.00 | 58 | 1012.5 |
| 20260509212931 | 64 | 235 | 2.0 | 4.0 | 0.00 | 0.00 | 0.00 | 59 | 1012.4 |
| 20260509212429 | 64 | 254 | 3.0 | 4.0 | 0.00 | 0.00 | 0.00 | 57 | 1012.6 |
| 20260509211924 | 64 | 224 | 3.0 | 3.0 | 0.00 | 0.00 | 0.00 | 59 | 1012.4 |
| 20260509211420 | 64 | 219 | 4.0 | 7.0 | 0.00 | 0.00 | 0.00 | 57 | 1012.3 |
| 20260509210917 | 65 | 261 | 3.0 | 3.0 | 0.00 | 0.00 | 0.00 | 59 | 1012.5 |
| 20260509210414 | 64 | 233 | 3.0 | 6.0 | 0.00 | 0.00 | 0.00 | 56 | 1012.0 |
| 20260509205910 | 64 | 259 | 3.0 | 7.0 | 0.00 | 0.00 | 0.00 | 56 | 1012.2 |
| 20260509205409 | 64 | 244 | 2.0 | 6.0 | 0.00 | 0.00 | 0.00 | 57 | 1012.2 |
| 20260509204906 | 64 | 224 | 3.0 | 6.0 | 0.00 | 0.00 | 0.00 | 58 | 1012.0 |
| 20260509204402 | 64 | 239 | 2.0 | 3.0 | 0.00 | 0.00 | 0.00 | 59 | 1011.9 |
| 20260509203859 | 64 | 214 | 2.0 | 4.0 | 0.00 | 0.00 | 0.00 | 57 | 1012.0 |
| 20260509203355 | 65 | 234 | 5.0 | 7.0 | 0.00 | 0.00 | 0.00 | 55 | 1011.9 |
| 20260509202852 | 65 | 245 | 1.0 | 6.0 | 0.00 | 0.00 | 0.00 | 55 | 1012.0 |
| 20260509202348 | 65 | 239 | 2.0 | 2.0 | 0.00 | 0.00 | 0.00 | 57 | 1011.9 |
| 20260509201843 | 65 | 236 | 3.0 | 6.0 | 0.00 | 0.00 | 0.00 | 53 | 1011.8 |
| 20260509201339 | 65 | 224 | 4.0 | 7.0 | 0.00 | 0.00 | 0.00 | 53 | 1011.9 |
| 20260509200836 | 65 | 227 | 1.0 | 4.0 | 0.00 | 0.00 | 0.00 | 55 | 1011.8 |
| 20260509200331 | 65 | 216 | 2.0 | 4.0 | 0.00 | 0.00 | 0.00 | 55 | 1012.0 |
| 20260509195828 | 65 | 251 | 4.0 | 7.0 | 0.00 | 0.00 | 0.00 | 56 | 1011.9 |
| 20260509195328 | 65 | 257 | 3.0 | 7.0 | 0.00 | 0.00 | 0.00 | 54 | 1011.9 |
| 20260509194827 | 65 | 227 | 6.0 | 7.0 | 0.00 | 0.00 | 0.00 | 56 | 1012.2 |
| 20260509194324 | 65 | 231 | 5.0 | 7.0 | 0.00 | 0.00 | 0.00 | 56 | 1012.0 |
| 20260509193821 | 65 | 199 | 2.0 | 4.0 | 0.00 | 0.00 | 0.00 | 58 | 1012.3 |
| 20260509193321 | 65 | 237 | 3.0 | 8.0 | 0.00 | 0.00 | 0.00 | 53 | 1012.0 |
| 20260509192817 | 64 | 255 | 2.0 | 2.0 | 0.00 | 0.00 | 0.00 | 57 | 1012.0 |
| 20260509192313 | 64 | 262 | 1.0 | 6.0 | 0.00 | 0.00 | 0.00 | 57 | 1012.0 |
| 20260509191808 | 65 | 224 | 2.0 | 4.0 | 0.00 | 0.00 | 0.00 | 55 | 1012.2 |
| 20260509191305 | 65 | 201 | 4.0 | 6.0 | 0.00 | 0.00 | 0.00 | 55 | 1011.9 |
| 20260509190800 | 65 | 243 | 2.0 | 4.0 | 0.00 | 0.00 | 0.00 | 54 | 1012.0 |
| 20260509190258 | 65 | 211 | 2.0 | 3.0 | 0.00 | 0.00 | 0.00 | 59 | 1011.9 |
| 20260509185755 | 65 | 251 | 4.0 | 6.0 | 0.00 | 0.00 | 0.00 | 59 | 1012.2 |
| 20260509185251 | 65 | 241 | 1.0 | 3.0 | 0.00 | 0.00 | 0.00 | 58 | 1011.9 |
| 20260509184749 | 65 | 241 | 2.0 | 8.0 | 0.00 | 0.00 | 0.00 | 56 | 1011.9 |
| 20260509184246 | 64 | 272 | 2.0 | 3.0 | 0.00 | 0.00 | 0.00 | 57 | 1012.2 |
| 20260509183742 | 65 | 234 | 6.0 | 9.0 | 0.00 | 0.00 | 0.00 | 57 | 1011.9 |
| 20260509183238 | 64 | 281 | 5.0 | 7.0 | 0.00 | 0.00 | 0.00 | 58 | 1012.0 |
| 20260509182733 | 64 | 224 | 6.0 | 7.0 | 0.00 | 0.00 | 0.00 | 60 | 1012.3 |
| 20260509182231 | 64 | 228 | 2.0 | 6.0 | 0.00 | 0.00 | 0.00 | 57 | 1012.2 |
| 20260509181728 | 64 | 241 | 6.0 | 9.0 | 0.00 | 0.00 | 0.00 | 57 | 1012.0 |
| 20260509181226 | 64 | 222 | 4.0 | 7.0 | 0.00 | 0.00 | 0.00 | 59 | 1011.9 |
| 20260509180723 | 64 | 195 | 3.0 | 6.0 | 0.00 | 0.00 | 0.00 | 58 | 1012.0 |
| 20260509180219 | 65 | 245 | 4.0 | 8.0 | 0.00 | 0.00 | 0.00 | 62 | 1012.3 |
| 20260509175715 | 66 | 261 | 3.0 | 3.0 | 0.00 | 0.00 | 0.00 | 60 | 1012.3 |
| 20260509175212 | 65 | 208 | 3.0 | 4.0 | 0.00 | 0.00 | 0.00 | 62 | 1012.2 |
| 20260509174707 | 64 | 250 | 1.0 | 2.0 | 0.00 | 0.00 | 0.00 | 63 | 1012.3 |
| 20260509174203 | 63 | 235 | 5.0 | 6.0 | 0.00 | 0.00 | 0.00 | 61 | 1012.2 |
| 20260509173659 | 62 | 264 | 3.0 | 7.0 | 0.00 | 0.00 | 0.00 | 62 | 1012.4 |
| 20260509173155 | 63 | 233 | 4.0 | 7.0 | 0.00 | 0.00 | 0.00 | 62 | 1012.5 |
| 20260509172651 | 62 | 228 | 3.0 | 6.0 | 0.00 | 0.00 | 0.00 | 62 | 1012.2 |
| 20260509172148 | 64 | 260 | 3.0 | 6.0 | 0.00 | 0.00 | 0.00 | 58 | 1012.3 |
| 20260509171643 | 64 | 142 | 2.0 | 4.0 | 0.00 | 0.00 | 0.00 | 60 | 1012.5 |
| 20260509171140 | 65 | 267 | 6.0 | 7.0 | 0.00 | 0.00 | 0.00 | 57 | 1012.4 |
| 20260509170637 | 65 | 254 | 2.0 | 6.0 | 0.00 | 0.00 | 0.00 | 62 | 1012.5 |
| 20260509170133 | 64 | 295 | 4.0 | 6.0 | 0.00 | 0.00 | 0.00 | 60 | 1012.6 |
| 20260509165631 | 63 | 239 | 3.0 | 6.0 | 0.00 | 0.00 | 0.00 | 60 | 1012.6 |
| 20260509165127 | 64 | 93 | 0.0 | 3.0 | 0.00 | 0.00 | 0.00 | 58 | 1012.6 |
| 20260509164623 | 63 | 205 | 2.0 | 6.0 | 0.00 | 0.00 | 0.00 | 59 | 1012.7 |
| 20260509164119 | 63 | 161 | 2.0 | 4.0 | 0.00 | 0.00 | 0.00 | 59 | 1012.5 |
| 20260509163617 | 62 | 231 | 1.0 | 3.0 | 0.00 | 0.00 | 0.00 | 62 | 1012.6 |
| 20260509163112 | 62 | 184 | 3.0 | 4.0 | 0.00 | 0.00 | 0.00 | 58 | 1012.6 |
| 20260509162610 | 61 | 226 | 2.0 | 3.0 | 0.00 | 0.00 | 0.00 | 59 | 1012.6 |
| 20260509162106 | 61 | 272 | 4.0 | 6.0 | 0.00 | 0.00 | 0.00 | 60 | 1012.6 |
| 20260509161602 | 61 | 228 | 3.0 | 4.0 | 0.00 | 0.00 | 0.00 | 61 | 1012.8 |
| 20260509161102 | 62 | 256 | 2.0 | 6.0 | 0.00 | 0.00 | 0.00 | 60 | 1012.7 |
| 20260509160558 | 61 | 217 | 1.0 | 3.0 | 0.00 | 0.00 | 0.00 | 63 | 1012.5 |
| 20260509160054 | 61 | 255 | 2.0 | 4.0 | 0.00 | 0.00 | 0.00 | 59 | 1012.4 |
| 20260509155550 | 60 | 311 | 1.0 | 4.0 | 0.00 | 0.00 | 0.00 | 61 | 1012.6 |
| 20260509155047 | 60 | 266 | 2.0 | 3.0 | 0.00 | 0.00 | 0.00 | 59 | 1012.5 |
| 20260509154543 | 60 | 250 | 2.0 | 2.0 | 0.00 | 0.00 | 0.00 | 61 | 1012.5 |
| 20260509154041 | 60 | 257 | 1.0 | 2.0 | 0.00 | 0.00 | 0.00 | 64 | 1012.6 |
| 20260509153537 | 59 | 227 | 1.0 | 2.0 | 0.00 | 0.00 | 0.00 | 61 | 1012.6 |
| 20260509153034 | 59 | 218 | 1.0 | 2.0 | 0.00 | 0.00 | 0.00 | 62 | 1012.4 |
| 20260509152530 | 59 | 209 | 1.0 | 1.0 | 0.00 | 0.00 | 0.00 | 60 | 1012.7 |
| 20260509152027 | 59 | 243 | 2.0 | 3.0 | 0.00 | 0.00 | 0.00 | 58 | 1012.8 |
| 20260509151523 | 60 | 262 | 3.0 | 3.0 | 0.00 | 0.00 | 0.00 | 57 | 1012.7 |
| 20260509151021 | 60 | 234 | 2.0 | 2.0 | 0.00 | 0.00 | 0.00 | 58 | 1013.0 |
| 20260509150518 | 60 | 245 | 1.0 | 2.0 | 0.00 | 0.00 | 0.00 | 63 | 1012.9 |
| 20260509150017 | 60 | 228 | 0.0 | 2.0 | 0.00 | 0.00 | 0.00 | 60 | 1013.0 |
| 20260509145512 | 59 | 236 | 1.0 | 3.0 | 0.00 | 0.00 | 0.00 | 57 | 1013.0 |
| 20260509145007 | 59 | 215 | 2.0 | 4.0 | 0.00 | 0.00 | 0.00 | 57 | 1013.2 |
| 20260509144505 | 59 | 220 | 1.0 | 2.0 | 0.00 | 0.00 | 0.00 | 58 | 1013.2 |
| 20260509144002 | 59 | 243 | 3.0 | 4.0 | 0.00 | 0.00 | 0.00 | 57 | 1013.1 |
| 20260509143459 | 60 | 236 | 3.0 | 3.0 | 0.00 | 0.00 | 0.00 | 59 | 1013.0 |
| 20260509142955 | 62 | 233 | 2.0 | 4.0 | 0.00 | 0.00 | 0.00 | 61 | 1012.8 |
| 20260509142452 | 64 | 41 | 1.0 | 2.0 | 0.00 | 0.00 | 0.00 | 53 | 1012.7 |
| 20260509141947 | 63 | 219 | 0.0 | 3.0 | 0.00 | 0.00 | 0.00 | 55 | 1012.7 |
| 20260509141444 | 64 | 318 | 1.0 | 2.0 | 0.00 | 0.00 | 0.00 | 54 | 1012.7 |
| 20260509140941 | 64 | 334 | 0.0 | 2.0 | 0.00 | 0.00 | 0.00 | 56 | 1012.6 |
| 20260509140437 | 63 | 18 | 1.0 | 1.0 | 0.00 | 0.00 | 0.00 | 57 | 1012.5 |
| 20260509135936 | 62 | 282 | 1.0 | 3.0 | 0.00 | 0.00 | 0.00 | 61 | 1012.4 |
| 20260509135433 | 62 | 71 | 1.0 | 1.0 | 0.00 | 0.00 | 0.00 | 60 | 1012.8 |
| 20260509134930 | 61 | 68 | 1.0 | 2.0 | 0.00 | 0.00 | 0.00 | 61 | 1012.5 |
| 20260509134427 | 61 | 274 | 1.0 | 2.0 | 0.00 | 0.00 | 0.00 | 63 | 1012.6 |
| 20260509133925 | 60 | 176 | 0.0 | 2.0 | 0.00 | 0.00 | 0.00 | 66 | 1012.6 |
| 20260509133421 | 59 | 56 | 1.0 | 1.0 | 0.00 | 0.00 | 0.00 | 67 | 1012.8 |
| 20260509132920 | 60 | 286 | 1.0 | 1.0 | 0.00 | 0.00 | 0.00 | 67 | 1012.6 |
| 20260509132417 | 59 | 139 | 0.0 | 1.0 | 0.00 | 0.00 | 0.00 | 69 | 1012.8 |
| 20260509131914 | 59 | 303 | 1.0 | 2.0 | 0.00 | 0.00 | 0.00 | 70 | 1012.8 |
| 20260509131411 | 58 | 272 | 0.0 | 1.0 | 0.00 | 0.00 | 0.00 | 70 | 1012.9 |
| 20260509130908 | 60 | 248 | 0.0 | 1.0 | 0.00 | 0.00 | 0.00 | 69 | 1012.9 |
| 20260509130403 | 59 | 196 | 0.0 | 0.0 | 0.00 | 0.00 | 0.00 | 67 | 1012.8 |
| 20260509125900 | 58 | 207 | 0.0 | 0.0 | 0.00 | 0.00 | 0.00 | 63 | 1013.0 |
| 20260509125357 | 58 | 247 | 0.0 | 0.0 | 0.00 | 0.00 | 0.00 | 69 | 1012.7 |
| 20260509124853 | 58 | 310 | 0.0 | 0.0 | 0.00 | 0.00 | 0.00 | 66 | 1012.7 |
| 20260509124350 | 57 | 259 | 0.0 | 1.0 | 0.00 | 0.00 | 0.00 | 68 | 1012.8 |
| 20260509123848 | 57 | 117 | 0.0 | 1.0 | 0.00 | 0.00 | 0.00 | 64 | 1012.7 |
| 20260509123345 | 56 | 148 | 0.0 | 1.0 | 0.00 | 0.00 | 0.00 | 71 | 1012.9 |
| 20260509122840 | 56 | 113 | 0.0 | 1.0 | 0.00 | 0.00 | 0.00 | 69 | 1012.9 |
| 20260509122337 | 55 | 122 | 0.0 | 1.0 | 0.00 | 0.00 | 0.00 | 68 | 1012.8 |
| 20260509121834 | 55 | 134 | 1.0 | 1.0 | 0.00 | 0.00 | 0.00 | 68 | 1012.9 |
| 20260509121332 | 54 | 239 | 0.0 | 0.0 | 0.00 | 0.00 | 0.00 | 81 | 1012.8 |
| 20260509120830 | 53 | 241 | 0.0 | 0.0 | 0.00 | 0.00 | 0.00 | 78 | 1012.8 |
| 20260509120327 | 54 | 140 | 1.0 | 2.0 | 0.00 | 0.00 | 0.00 | 78 | 1012.8 |
| 20260509115825 | 52 | 128 | 3.0 | 4.0 | 0.00 | 0.00 | 0.00 | 69 | 1012.7 |
| 20260509115322 | 52 | 112 | 0.0 | 1.0 | 0.00 | 0.00 | 0.00 | 76 | 1012.8 |
| 20260509114820 | 51 | 106 | 1.0 | 2.0 | 0.00 | 0.00 | 0.00 | 80 | 1012.8 |
| 20260509114318 | 50 | 210 | 0.0 | 1.0 | 0.00 | 0.00 | 0.00 | 83 | 1012.9 |
| 20260509113818 | 51 | 91 | 0.0 | 0.0 | 0.00 | 0.00 | 0.00 | 84 | 1013.0 |
| 20260509113314 | 51 | 91 | 1.0 | 2.0 | 0.00 | 0.00 | 0.00 | 83 | 1013.0 |
| 20260509112810 | 50 | 84 | 1.0 | 1.0 | 0.00 | 0.00 | 0.00 | 80 | 1013.0 |
| 20260509112308 | 51 | 265 | 0.0 | 1.0 | 0.00 | 0.00 | 0.00 | 81 | 1012.9 |
| 20260509111805 | 50 | 86 | 1.0 | 1.0 | 0.00 | 0.00 | 0.00 | 80 | 1012.8 |
| 20260509111301 | 50 | 218 | 0.0 | 1.0 | 0.00 | 0.00 | 0.00 | 81 | 1012.9 |
| 20260509110759 | 51 | 81 | 1.0 | 1.0 | 0.00 | 0.00 | 0.00 | 78 | 1012.8 |
| 20260509110255 | 50 | 67 | 1.0 | 1.0 | 0.00 | 0.00 | 0.00 | 76 | 1012.8 |
| 20260509105754 | 50 | 228 | 1.0 | 1.0 | 0.00 | 0.00 | 0.00 | 76 | 1012.8 |
| 20260509105251 | 51 | 83 | 1.0 | 2.0 | 0.00 | 0.00 | 0.00 | 71 | 1012.9 |
| 20260509104747 | 51 | 83 | 0.0 | 0.0 | 0.00 | 0.00 | 0.00 | 72 | 1012.7 |
| 20260509104244 | 51 | 83 | 1.0 | 2.0 | 0.00 | 0.00 | 0.00 | 69 | 1012.9 |
| 20260509103743 | 51 | 82 | 0.0 | 0.0 | 0.00 | 0.00 | 0.00 | 73 | 1013.0 |
| 20260509103239 | 51 | 82 | 0.0 | 1.0 | 0.00 | 0.00 | 0.00 | 67 | 1012.8 |
| 20260509102738 | 51 | 82 | 0.0 | 0.0 | 0.00 | 0.00 | 0.00 | 71 | 1012.9 |
| 20260509102234 | 50 | 82 | 0.0 | 1.0 | 0.00 | 0.00 | 0.00 | 70 | 1012.7 |
| 20260509101731 | 50 | 82 | 1.0 | 1.0 | 0.00 | 0.00 | 0.00 | 72 | 1012.7 |
| 20260509101227 | 51 | 70 | 0.0 | 0.0 | 0.00 | 0.00 | 0.00 | 74 | 1012.7 |
| 20260509100725 | 51 | 70 | 0.0 | 1.0 | 0.00 | 0.00 | 0.00 | 70 | 1012.7 |
| 20260509100222 | 51 | 39 | 1.0 | 2.0 | 0.00 | 0.00 | 0.00 | 67 | 1012.9 |
| 20260509095718 | 51 | 11 | 0.0 | 0.0 | 0.00 | 0.00 | 0.00 | 76 | 1012.8 |
| 20260509095216 | 53 | 337 | 0.0 | 1.0 | 0.00 | 0.00 | 0.00 | 67 | 1012.8 |
| 20260509094713 | 53 | 66 | 1.0 | 2.0 | 0.00 | 0.00 | 0.00 | 63 | 1012.6 |
| 20260509094209 | 53 | 37 | 1.0 | 1.0 | 0.00 | 0.00 | 0.00 | 62 | 1012.9 |
| 20260509093708 | 53 | 90 | 1.0 | 1.0 | 0.00 | 0.00 | 0.00 | 68 | 1012.9 |
| 20260509093204 | 53 | 79 | 0.0 | 0.0 | 0.00 | 0.00 | 0.00 | 62 | 1012.5 |
| 20260509092702 | 53 | 78 | 1.0 | 1.0 | 0.00 | 0.00 | 0.00 | 64 | 1012.6 |
| 20260509092200 | 53 | 123 | 0.0 | 0.0 | 0.00 | 0.00 | 0.00 | 62 | 1012.8 |
| 20260509091659 | 53 | 123 | 0.0 | 0.0 | 0.00 | 0.00 | 0.00 | 62 | 1012.7 |
| 20260509091154 | 53 | 109 | 0.0 | 0.0 | 0.00 | 0.00 | 0.00 | 63 | 1012.7 |
| 20260509090652 | 53 | 132 | 0.0 | 0.0 | 0.00 | 0.00 | 0.00 | 64 | 1012.7 |
| 20260509090149 | 54 | 110 | 0.0 | 1.0 | 0.00 | 0.00 | 0.00 | 63 | 1012.5 |
| 20260509085647 | 54 | 119 | 0.0 | 0.0 | 0.00 | 0.00 | 0.00 | 62 | 1012.7 |
| 20260509085143 | 54 | 90 | 0.0 | 1.0 | 0.00 | 0.00 | 0.00 | 61 | 1012.7 |
| 20260509084640 | 54 | 126 | 0.0 | 1.0 | 0.00 | 0.00 | 0.00 | 61 | 1012.7 |
| 20260509084137 | 54 | 121 | 0.0 | 1.0 | 0.00 | 0.00 | 0.00 | 60 | 1012.9 |
| 20260509083634 | 53 | 131 | 0.0 | 1.0 | 0.00 | 0.00 | 0.00 | 64 | 1012.8 |
| 20260509083131 | 54 | 119 | 1.0 | 1.0 | 0.00 | 0.00 | 0.00 | 64 | 1012.8 |
| 20260509082628 | 54 | 113 | 0.0 | 1.0 | 0.00 | 0.00 | 0.00 | 62 | 1012.7 |
| 20260509082125 | 54 | 133 | 0.0 | 1.0 | 0.00 | 0.00 | 0.00 | 63 | 1012.7 |
| 20260509081622 | 54 | 132 | 0.0 | 0.0 | 0.00 | 0.00 | 0.00 | 62 | 1012.8 |
| 20260509081119 | 54 | 108 | 0.0 | 1.0 | 0.00 | 0.00 | 0.00 | 65 | 1012.8 |
| 20260509080617 | 54 | 165 | 1.0 | 3.0 | 0.00 | 0.00 | 0.00 | 61 | 1012.9 |
| 20260509080115 | 53 | 176 | 1.0 | 2.0 | 0.00 | 0.00 | 0.00 | 63 | 1012.9 |
| 20260509075612 | 54 | 108 | 0.0 | 1.0 | 0.00 | 0.00 | 0.00 | 66 | 1012.9 |
| 20260509075110 | 53 | 109 | 1.0 | 2.0 | 0.00 | 0.00 | 0.00 | 61 | 1012.7 |
| 20260509074606 | 54 | 100 | 0.0 | 1.0 | 0.00 | 0.00 | 0.00 | 63 | 1012.8 |
| 20260509074102 | 54 | 141 | 0.0 | 0.0 | 0.00 | 0.00 | 0.00 | 62 | 1012.9 |
| 20260509073600 | 54 | 195 | 0.0 | 1.0 | 0.00 | 0.00 | 0.00 | 63 | 1012.9 |
| 20260509073056 | 54 | 93 | 0.0 | 2.0 | 0.00 | 0.00 | 0.00 | 63 | 1012.8 |
| 20260509072552 | 54 | 123 | 0.0 | 1.0 | 0.00 | 0.00 | 0.00 | 67 | 1012.9 |
| 20260509072050 | 53 | 126 | 1.0 | 2.0 | 0.00 | 0.00 | 0.00 | 61 | 1012.9 |
| 20260509071546 | 54 | 113 | 0.0 | 1.0 | 0.00 | 0.00 | 0.00 | 63 | 1012.8 |
| 20260509071044 | 54 | 117 | 0.0 | 1.0 | 0.00 | 0.00 | 0.00 | 67 | 1012.9 |
| 20260509070541 | 53 | 132 | 1.0 | 1.0 | 0.00 | 0.00 | 0.00 | 67 | 1013.0 |
| 20260509070037 | 53 | 123 | 0.0 | 0.0 | 0.00 | 0.00 | 0.00 | 67 | 1013.2 |
| 20260509065532 | 53 | 108 | 0.0 | 1.0 | 0.00 | 0.00 | 0.00 | 69 | 1012.9 |
| 20260509065029 | 53 | 131 | 0.0 | 0.0 | 0.00 | 0.00 | 0.00 | 71 | 1012.9 |
| 20260509064527 | 53 | 165 | 0.0 | 0.0 | 0.00 | 0.00 | 0.00 | 68 | 1012.9 |
| 20260509064025 | 53 | 121 | 0.0 | 0.0 | 0.00 | 0.00 | 0.00 | 66 | 1012.8 |
| 20260509063519 | 53 | 125 | 0.0 | 0.0 | 0.00 | 0.00 | 0.00 | 65 | 1013.1 |
| 20260509063017 | 53 | 145 | 0.0 | 1.0 | 0.00 | 0.00 | 0.00 | 67 | 1013.1 |
| 20260509062514 | 53 | 123 | 1.0 | 1.0 | 0.00 | 0.00 | 0.00 | 65 | 1013.2 |
| 20260509062012 | 53 | 105 | 1.0 | 1.0 | 0.00 | 0.00 | 0.00 | 66 | 1013.0 |
| 20260509061509 | 53 | 136 | 0.0 | 0.0 | 0.00 | 0.00 | 0.00 | 69 | 1013.3 |